sat.trackr.live / text

‹ back to catalog

STARLINK-5803

NORAD 56008 · 2023-042Y

PAYLOAD ACTIVE UNKNOWN

§ Identity

Operator
Country
US
Launch date
2023-03-24
Launch site
AFETR
Launch vehicle
Mass (kg)
RCS (m²)

Purposes: comms

External: N2YO · Heavens-Above · Gunter

§ Orbital elements

Epoch: 2026-09-20T19:39:28.444608Z

Period
94.27 min
Inclination
43.0057°
Eccentricity
0.0001134
Mean motion
15.27580209 rev/d
Perigee alt
482.3 km
Apogee alt
483.8 km
Semi-major
6,861.2 km
B*
4.0715e-5
RAAN
37.4617°
Arg perigee
267.7026°
Mean anomaly
92.3696°
Rev number
19,270

§ Raw data

STARLINK-58031 56008U 23042Y   26263.81907922  .00000858  00000+0  40715-4 0  99982 56008  43.0057  37.4617 0001134 267.7026  92.3696 15.27580209192700

JSON: /api/v1/satellites/56008 · /tle

For live sub-satellite position, see the globe view (requires WebGL).

§ Visibility from observer

Set your observer location to see the next 7 days of passes ≥ 10°. The values pass through the URL so the page stays shareable.

No JS? Fill the form by hand. The geolocation button needs JavaScript.